When you browse on this site, cookies collect data to enhance your experience and personalize the content and advertising you see.
Visit our Privacy Policy to learn more. By continuing to use the site, you agree to this use of cookies and data.

Météo par heure à Ho Chi Minh

Ce jour, 4 Août, Mardi

Heure Température Précipitation Vent Pression Humidité
00:00 +28°C° 0 mm 1 m/s 754 mmHg 88%
01:00 +28°C° 0 mm 2 m/s 754 mmHg 89%
02:00 +27°C° 0.3 mm 2 m/s 754 mmHg 89%
03:00 +27°C° 0.3 mm 1 m/s 753 mmHg 90%
04:00 +27°C° 0.3 mm 1 m/s 753 mmHg 91%
05:00 +27°C° 1.1 mm 1 m/s 754 mmHg 90%
06:00 +28°C° 1.1 mm 2 m/s 754 mmHg 89%
07:00 +28°C° 0 mm 3 m/s 754 mmHg 88%
08:00 +29°C° 0.2 mm 3 m/s 754 mmHg 85%
09:00 +29°C° 0.2 mm 3 m/s 754 mmHg 83%
10:00 +30°C° 0.2 mm 4 m/s 755 mmHg 80%
11:00 +32°C° 1.2 mm 4 m/s 754 mmHg 78%
12:00 +32°C° 1.2 mm 5 m/s 754 mmHg 77%
13:00 +33°C° 0 mm 4 m/s 753 mmHg 73%
14:00 +33°C° 0.9 mm 5 m/s 753 mmHg 73%
15:00 +33°C° 0.9 mm 5 m/s 753 mmHg 73%
16:00 +33°C° 0.9 mm 5 m/s 752 mmHg 74%
17:00 +30°C° 1.8 mm 5 m/s 753 mmHg 78%
18:00 +29°C° 1.8 mm 4 m/s 753 mmHg 82%
19:00 +28°C° 1.8 mm 4 m/s 753 mmHg 86%
20:00 +27°C° 0.1 mm 3 m/s 754 mmHg 86%
21:00 +27°C° 0.1 mm 3 m/s 754 mmHg 86%
22:00 +27°C° 0.1 mm 2 m/s 755 mmHg 86%
23:00 +27°C° 0.1 mm 2 m/s 755 mmHg 85%

Demain, 5 Août, Mercredi

Heure Température Précipitation Vent Pression Humidité
00:00 +27°C° 0.1 mm 2 m/s 754 mmHg 85%
01:00 +27°C° 0.1 mm 1 m/s 754 mmHg 84%
02:00 +27°C° 0 mm 1 m/s 754 mmHg 84%
03:00 +27°C° 0 mm 1 m/s 754 mmHg 85%
04:00 +27°C° 0 mm 1 m/s 754 mmHg 85%
05:00 +27°C° 0 mm 1 m/s 754 mmHg 85%
06:00 +27°C° 0 mm 1 m/s 754 mmHg 85%
07:00 +27°C° 0 mm 1 m/s 755 mmHg 84%
08:00 +29°C° 0 mm 2 m/s 755 mmHg 79%
09:00 +30°C° 0 mm 3 m/s 755 mmHg 74%
10:00 +33°C° 0 mm 4 m/s 755 mmHg 68%
11:00 +33°C° 0.3 mm 4 m/s 755 mmHg 67%
12:00 +34°C° 0.3 mm 5 m/s 754 mmHg 65%
13:00 +34°C° 0.3 mm 5 m/s 754 mmHg 63%
14:00 +34°C° 1 mm 5 m/s 753 mmHg 66%
15:00 +34°C° 1 mm 5 m/s 753 mmHg 68%
16:00 +33°C° 1 mm 4 m/s 752 mmHg 71%
17:00 +32°C° 0.4 mm 4 m/s 753 mmHg 74%
18:00 +30°C° 0.4 mm 3 m/s 753 mmHg 77%
19:00 +29°C° 0.4 mm 2 m/s 754 mmHg 79%
20:00 +29°C° 0.2 mm 2 m/s 755 mmHg 81%
21:00 +28°C° 0.2 mm 1 m/s 755 mmHg 82%
22:00 +28°C° 0.2 mm 1 m/s 756 mmHg 83%
23:00 +28°C° 1.3 mm 1 m/s 756 mmHg 86%

Après-demain, 6 Août, Jeudi

Heure Température Précipitation Vent Pression Humidité
00:00 +27°C° 1.3 mm 1 m/s 756 mmHg 88%
01:00 +27°C° 1.3 mm 1 m/s 755 mmHg 91%
02:00 +27°C° 2.2 mm 2 m/s 755 mmHg 92%
03:00 +26°C° 2.2 mm 2 m/s 755 mmHg 92%
04:00 +26°C° 2.2 mm 3 m/s 755 mmHg 93%
05:00 +26°C° 1.6 mm 3 m/s 755 mmHg 93%
06:00 +26°C° 1.6 mm 3 m/s 755 mmHg 93%
07:00 +26°C° 1.6 mm 3 m/s 756 mmHg 94%
08:00 +26°C° 2.2 mm 3 m/s 756 mmHg 94%
09:00 +26°C° 2.2 mm 3 m/s 756 mmHg 94%
10:00 +26°C° 2.2 mm 3 m/s 757 mmHg 94%
11:00 +26°C° 3.2 mm 4 m/s 756 mmHg 93%
12:00 +26°C° 3.2 mm 4 m/s 756 mmHg 93%
13:00 +26°C° 3.2 mm 4 m/s 755 mmHg 92%
14:00 +26°C° 1.2 mm 4 m/s 755 mmHg 92%
15:00 +26°C° 1.2 mm 4 m/s 755 mmHg 92%
16:00 +26°C° 1.2 mm 3 m/s 754 mmHg 92%
17:00 +25°C° 0.2 mm 3 m/s 755 mmHg 91%
18:00 +25°C° 0.2 mm 3 m/s 755 mmHg 91%
19:00 +25°C° 0.2 mm 3 m/s 755 mmHg 91%
20:00 +25°C° 0 mm 3 m/s 756 mmHg 91%
21:00 +25°C° 0 mm 2 m/s 756 mmHg 91%
22:00 +25°C° 0 mm 2 m/s 757 mmHg 91%
23:00 +25°C° 0.5 mm 2 m/s 756 mmHg 92%

7 Août, Vendredi

Heure Température Précipitation Vent Pression Humidité
00:00 +25°C° 0.5 mm 2 m/s 756 mmHg 93%
01:00 +25°C° 0.5 mm 1 m/s 756 mmHg 94%
02:00 +25°C° 1.3 mm 1 m/s 755 mmHg 95%
03:00 +25°C° 1.3 mm 1 m/s 755 mmHg 95%
04:00 +25°C° 1.3 mm 2 m/s 754 mmHg 96%
05:00 +25°C° 0.3 mm 2 m/s 755 mmHg 95%
06:00 +25°C° 0.3 mm 2 m/s 755 mmHg 94%
07:00 +25°C° 0.3 mm 2 m/s 755 mmHg 93%
08:00 +26°C° 0.2 mm 2 m/s 756 mmHg 91%
09:00 +26°C° 0.2 mm 2 m/s 756 mmHg 90%
10:00 +26°C° 0.2 mm 2 m/s 756 mmHg 88%
11:00 +27°C° 0.3 mm 2 m/s 756 mmHg 89%
12:00 +27°C° 0.3 mm 2 m/s 755 mmHg 89%
13:00 +27°C° 0.3 mm 2 m/s 755 mmHg 90%
14:00 +27°C° 0.3 mm 2 m/s 755 mmHg 91%
15:00 +27°C° 0.3 mm 1 m/s 754 mmHg 91%
16:00 +27°C° 0.3 mm 1 m/s 754 mmHg 91%
17:00 +26°C° 0 mm 1 m/s 754 mmHg 91%
18:00 +26°C° 0 mm 1 m/s 754 mmHg 91%
19:00 +26°C° 0 mm 1 m/s 754 mmHg 91%
20:00 +26°C° 0 mm 1 m/s 755 mmHg 91%
21:00 +24°C° 0 mm 0 m/s 755 mmHg 90%
22:00 +24°C° 0 mm 0 m/s 756 mmHg 90%
23:00 +24°C° 0 mm 0 m/s 756 mmHg 90%

8 Août, Samedi

Heure Température Précipitation Vent Pression Humidité
00:00 +26°C° 0 mm 1 m/s 755 mmHg 91%
01:00 +26°C° 0 mm 1 m/s 755 mmHg 92%
02:00 +25°C° 0 mm 1 m/s 755 mmHg 93%
03:00 +25°C° 0 mm 1 m/s 754 mmHg 93%
04:00 +25°C° 0 mm 1 m/s 754 mmHg 93%
05:00 +26°C° 0 mm 1 m/s 755 mmHg 92%
06:00 +26°C° 0 mm 1 m/s 755 mmHg 90%
07:00 +26°C° 0 mm 1 m/s 755 mmHg 89%
08:00 +27°C° 0 mm 2 m/s 755 mmHg 86%
09:00 +28°C° 0 mm 2 m/s 755 mmHg 83%
10:00 +29°C° 0 mm 2 m/s 755 mmHg 80%
11:00 +31°C° 0 mm 3 m/s 755 mmHg 74%
12:00 +33°C° 0 mm 4 m/s 754 mmHg 69%
13:00 +34°C° 0 mm 4 m/s 754 mmHg 64%
14:00 +34°C° 0.5 mm 4 m/s 753 mmHg 66%
15:00 +33°C° 0.5 mm 4 m/s 753 mmHg 69%
16:00 +31°C° 0.5 mm 3 m/s 752 mmHg 72%
17:00 +31°C° 0.6 mm 3 m/s 752 mmHg 75%
18:00 +30°C° 0.6 mm 2 m/s 753 mmHg 79%
19:00 +29°C° 0.6 mm 2 m/s 753 mmHg 83%
20:00 +29°C° 0.2 mm 2 m/s 754 mmHg 84%
21:00 +28°C° 0.2 mm 2 m/s 754 mmHg 84%
22:00 +28°C° 0.2 mm 2 m/s 755 mmHg 85%
23:00 +28°C° 0 mm 2 m/s 755 mmHg 86%

9 Août, Dimanche

Heure Température Précipitation Vent Pression Humidité
00:00 +28°C° 0 mm 2 m/s 755 mmHg 87%
01:00 +28°C° 0 mm 2 m/s 754 mmHg 88%
02:00 +28°C° 0.1 mm 2 m/s 754 mmHg 89%
03:00 +27°C° 0.1 mm 2 m/s 754 mmHg 89%
04:00 +27°C° 0.1 mm 2 m/s 754 mmHg 89%
05:00 +28°C° 0 mm 2 m/s 754 mmHg 88%
06:00 +28°C° 0 mm 2 m/s 754 mmHg 87%
07:00 +28°C° 0 mm 1 m/s 754 mmHg 86%
08:00 +30°C° 0.1 mm 2 m/s 755 mmHg 79%
09:00 +31°C° 0.1 mm 2 m/s 755 mmHg 72%
10:00 +34°C° 0.1 mm 3 m/s 755 mmHg 65%
11:00 +34°C° 1.1 mm 3 m/s 754 mmHg 64%
12:00 +35°C° 1.1 mm 4 m/s 754 mmHg 63%
13:00 +35°C° 1.1 mm 4 m/s 753 mmHg 62%
14:00 +35°C° 1 mm 4 m/s 753 mmHg 64%
15:00 +34°C° 1 mm 4 m/s 753 mmHg 65%
16:00 +34°C° 1 mm 3 m/s 752 mmHg 67%
17:00 +33°C° 0.7 mm 3 m/s 753 mmHg 71%
18:00 +31°C° 0.7 mm 2 m/s 753 mmHg 75%
19:00 +30°C° 0.7 mm 2 m/s 754 mmHg 78%
20:00 +29°C° 0.2 mm 1 m/s 754 mmHg 80%
21:00 +29°C° 0.2 mm 1 m/s 755 mmHg 82%
22:00 +29°C° 0.2 mm 1 m/s 756 mmHg 83%
23:00 +28°C° 0 mm 1 m/s 755 mmHg 85%
Voir plus